Details for Air Canada Jazz at CYVR




Go Back


Latest METAR
Local Time

CYVR 181400Z 08003KT 30SM SCT014 09/08 A3014 RMK SC3 SLP206
18/09/2018, 07:21:53

Description
Results
Air Canada Jazz Logo
Number of Pilots based at CYVR
0 Pilots Based here
Number of Air Canada Jazz Flights Departed from CYVR
2 Flights Departed
Number of Air Canada Jazz Flights Arrived at CYVR
1 Flights Arrived
Number of Air Canada Jazz Schedules Departing from CYVR
89 Schedules
Number of Air Canada Jazz Schedules Arriving at CYVR
78 Schedules
Number of Air Canada Jazz Schedules Departing from CYVR availible today
87 Schedules Today
Number of Air Canada Jazz Schedules Arriving at CYVR availible today
74 Schedules Today
Average Landing Rate at CYVR
-292 fpm
Air Canada Jazz Average Landing Rate at CYVR
-235 fpm
Total Fuel Purchased at CYVR by Air Canada Jazz
2,180.87 kgs / 4,807.95 lbs

Pilots Based at CYVR


Pilot ID
Pilot Name
Pilot Rank
No. of Flights
No. of Flying Hours
There are no pilots assigned to this hub!   Will you be the first?
Content